Simultaneous Nadir Overpasses (SNOs) Predictions

Prediction of SNOs between GOES-17 and TERRA Satellite Orbit:

Table of predicted SNOs for the next 14.0 days since TLE Epoch: 8/22/2020
Index Date Time (GOES-17) GOES-17 Lat,Lon TERRA Lat,Lon Distance(km) Time Diff (sec)
1 08/22/2020 19:33:50 -0.03,-137.18 -0.37,-135.58 181.79 80
2 08/23/2020 07:52:34 0.03,-137.17 -0.75,-140.77 409.35 80
3 08/25/2020 07:40:23 0.02,-137.16 -0.10,-137.82 74.96 80
4 08/27/2020 07:30:51 0.02,-137.13 0.49,-134.85 258.71 80
5 08/27/2020 19:49:27 -0.02,-137.13 0.58,-140.02 328.02 80
6 08/29/2020 19:39:55 -0.00,-137.10 -0.02,-137.05 5.40 80
7 08/31/2020 19:27:43 -0.00,-137.07 -0.61,-134.09 338.18 80
8 09/01/2020 07:49:07 0.00,-137.05 -0.50,-139.28 253.45 80
9 09/03/2020 07:34:16 0.00,-137.02 0.16,-136.33 79.09 80
